{"data":{"norad_id":63825,"intl_designator":"2025-092X","name":"STARLINK-33874","alt_names":[],"object_type":"PAYLOAD","status":"ACTIVE","operator":null,"country":"US","launch_date":"2025-05-04","launch_site_code":"AFETR","launch_vehicle":null,"mission":null,"orbit_class":"UNKNOWN","rcs_meters":null,"size_class":null,"mass_kg":null,"dimensions":null,"purposes":["comms"],"wikipedia_slug":null,"has_3d_model":false,"image_url":null,"decayed_at":null,"tle_current":{"epoch":"2026-09-19T02:25:43.574592Z","epoch_age_seconds":270759,"freshness":"STALE","line1":"1 63825U 25092X   26262.10119878  .00009725  00000+0  36236-3 0  9990","line2":"2 63825  43.0014 160.3265 0001001 274.1436  85.9301 15.27587141 78248","mean_motion":15.27587141,"eccentricity":0.0001001,"inclination_deg":43.0014,"raan_deg":160.3265,"arg_perigee_deg":274.1436,"mean_anomaly_deg":85.9301,"bstar":0.00036236,"rev_number":7824,"period_min":94.266308045598,"perigee_km":482.34091081218,"apogee_km":483.7145159878,"semimajor_km":6861.1647134,"source":"CELESTRAK","updated_at":"2026-09-21T09:00:35.108323Z"}}}